GW5276 Weather Reports


time (UTC)temp
F
wind
direction
speed
knots
gust
knots
rain 1hr
in
rain 24hr
in
rain mn
in
humidity
%
barometer
mb
20260508023259 41 248 0.0 0.0 0.00 0.01 0.01 90 1014.4
20260508022755 42 248 0.0 0.0 0.00 0.01 0.01 90 1014.4
20260508022252 42 248 0.0 0.0 0.00 0.01 0.01 90 1014.4
20260508021749 42 248 0.0 0.0 0.00 0.01 0.01 90 1014.2
20260508021244 42 248 0.0 0.0 0.00 0.01 0.01 90 1014.2
20260508020741 43 248 0.0 0.0 0.00 0.01 0.01 89 1014.2
20260508020239 43 248 0.0 0.0 0.00 0.01 0.01 89 1014.0
20260508015736 43 248 0.0 0.0 0.00 0.01 0.01 89 1014.1
20260508015233 43 248 0.0 0.0 0.00 0.01 0.01 89 1014.0
20260508014730 43 248 0.0 0.0 0.00 0.01 0.01 88 1013.8
20260508014226 44 248 0.0 0.0 0.00 0.01 0.01 88 1013.8
20260508013722 44 248 0.0 0.0 0.00 0.01 0.01 87 1013.7
20260508013218 44 248 0.0 0.0 0.00 0.01 0.01 87 1013.6
20260508012716 44 248 0.0 0.0 0.00 0.01 0.01 86 1013.6
20260508012213 45 249 0.0 0.0 0.00 0.01 0.01 85 1013.6
20260508011711 45 246 0.0 0.0 0.00 0.01 0.01 84 1013.3
20260508011208 46 250 0.0 0.0 0.00 0.01 0.01 83 1013.2
20260508010704 46 251 0.0 0.0 0.00 0.01 0.01 82 1013.2
20260508010202 46 252 0.0 0.0 0.00 0.01 0.01 81 1013.2
20260508005659 47 250 0.0 0.0 0.00 0.01 0.01 81 1013.2
20260508005156 47 251 1.7 1.7 0.00 0.01 0.01 80 1013.2
20260508004652 48 234 1.7 1.7 0.00 0.01 0.01 78 1013.1
20260508004149 49 346 0.0 0.0 0.00 0.01 0.01 74 1012.8
20260508003645 49 263 0.0 0.0 0.00 0.01 0.01 74 1012.9
20260508003142 49 245 0.9 2.6 0.00 0.01 0.01 73 1012.8
20260508002638 50 258 0.0 0.0 0.00 0.01 0.01 71 1012.7
20260508002137 51 258 0.0 0.9 0.00 0.01 0.01 71 1012.4
20260508001631 51 258 0.0 0.0 0.00 0.01 0.01 67 1012.6
20260508001128 51 228 0.0 0.0 0.00 0.01 0.01 67 1012.2
20260508000623 53 189 0.0 0.0 0.00 0.01 0.01 63 1012.3
20260508000121 54 194 0.0 0.0 0.00 0.01 0.01 62 1012.0
20260507235618 55 249 0.0 0.0 0.00 0.01 0.01 54 1012.1
20260507235115 56 234 0.0 0.0 0.00 0.01 0.01 53 1012.1
20260507234611 57 236 0.9 1.7 0.00 0.01 0.01 47 1012.0
20260507234108 57 251 1.7 5.2 0.00 0.01 0.01 46 1012.2
20260507233605 58 296 0.0 0.9 0.00 0.01 0.01 47 1011.9
20260507233104 58 286 0.0 0.0 0.00 0.01 0.01 49 1012.0
20260507232600 59 286 0.0 0.9 0.00 0.01 0.01 46 1011.7
20260507232057 59 255 0.0 2.6 0.00 0.01 0.01 47 1011.7
20260507231553 59 130 0.0 0.0 0.00 0.01 0.01 41 1011.7
20260507231051 60 237 0.9 2.6 0.00 0.01 0.01 41 1011.7
20260507230547 59 323 0.9 0.9 0.00 0.01 0.01 45 1011.6
20260507230044 59 30 0.0 0.9 0.00 0.01 0.01 59 1011.4
20260507225538 59 32 0.0 0.9 0.00 0.01 0.01 42 1011.6
20260507225035 59 275 0.9 1.7 0.00 0.01 0.01 44 1011.6
20260507224531 59 319 0.0 2.6 0.00 0.01 0.01 43 1011.6
20260507224028 59 256 1.7 5.2 0.00 0.01 0.01 45 1011.6
20260507223524 60 219 0.9 5.2 0.00 0.01 0.01 39 1011.6
20260507223021 62 223 2.6 5.2 0.00 0.01 0.01 40 1011.7
20260507222518 62 20 0.0 1.7 0.00 0.01 0.01 43 1011.6
20260507222014 61 259 0.9 1.7 0.00 0.01 0.01 41 1011.7
20260507221511 62 237 4.3 7.0 0.00 0.01 0.01 41 1011.6
20260507221008 62 231 3.5 7.8 0.00 0.01 0.01 42 1011.3
20260507220505 62 206 3.5 5.2 0.00 0.01 0.01 43 1011.2
20260507220002 63 240 1.7 3.5 0.00 0.01 0.01 39 1011.1
20260507215458 63 158 2.6 3.5 0.00 0.01 0.01 39 1011.0
20260507214956 63 232 5.2 8.7 0.00 0.01 0.01 43 1011.1
20260507214453 63 213 4.3 9.6 0.00 0.01 0.01 39 1011.1
20260507213949 61 240 1.7 5.2 0.00 0.01 0.01 42 1011.0
20260507213445 61 306 0.0 2.6 0.00 0.01 0.01 40 1011.1
20260507212943 63 261 2.6 3.5 0.00 0.01 0.01 39 1010.9
20260507212438 63 256 2.6 2.6 0.00 0.01 0.01 44 1010.9
20260507211936 62 257 3.5 6.1 0.00 0.01 0.01 41 1011.0
20260507211427 63 289 2.6 5.2 0.00 0.01 0.01 43 1010.9
20260507210923 62 209 5.2 9.6 0.00 0.01 0.01 38 1010.8
20260507210420 61 228 1.7 2.6 0.00 0.01 0.01 46 1010.7
20260507205917 60 53 0.0 2.6 0.00 0.01 0.01 50 1011.0
20260507205414 60 271 3.5 5.2 0.00 0.01 0.01 48 1010.8
20260507204910 60 261 1.7 5.2 0.00 0.01 0.01 45 1010.8
20260507204406 62 223 7.8 13.9 0.00 0.01 0.01 43 1010.9
20260507203904 61 226 2.6 2.6 0.00 0.01 0.01 45 1010.8
20260507203402 61 52 1.7 3.5 0.00 0.01 0.01 44 1010.8
20260507202858 63 260 1.7 7.8 0.00 0.01 0.01 39 1011.0
20260507202354 63 253 3.5 7.8 0.00 0.01 0.01 44 1010.9
20260507201850 63 261 3.5 5.2 0.00 0.01 0.01 43 1010.9
20260507201346 63 77 3.5 11.3 0.00 0.01 0.01 40 1010.9
20260507200843 62 139 0.0 2.6 0.00 0.01 0.01 46 1011.1
20260507200339 63 231 1.7 2.6 0.00 0.01 0.01 44 1011.0
20260507195835 63 148 0.0 1.7 0.00 0.01 0.01 44 1011.0
20260507195332 62 224 0.0 3.5 0.00 0.01 0.01 46 1011.4
20260507194829 62 89 3.5 5.2 0.00 0.01 0.01 42 1011.4
20260507194325 64 246 6.1 7.0 0.00 0.01 0.01 42 1011.3
20260507193822 62 251 3.5 6.1 0.00 0.01 0.01 48 1011.6
20260507193319 62 205 3.5 7.0 0.00 0.01 0.01 41 1011.3
20260507192814 63 203 4.3 9.6 0.00 0.01 0.01 44 1011.3
20260507192312 63 253 1.7 6.1 0.00 0.01 0.01 46 1011.3
20260507191808 62 240 5.2 7.8 0.00 0.01 0.01 46 1011.6
20260507191304 62 264 5.2 7.8 0.00 0.01 0.01 45 1011.4
20260507190801 61 64 0.9 5.2 0.00 0.01 0.01 49 1011.6
20260507190300 60 220 3.5 3.5 0.00 0.01 0.01 44 1011.4
20260507185758 61 96 0.9 1.7 0.00 0.01 0.01 45 1011.4
20260507185254 60 234 0.9 3.5 0.00 0.01 0.01 43 1011.7
20260507184752 60 59 1.7 5.2 0.00 0.01 0.01 47 1011.6
20260507184250 62 215 4.3 6.1 0.00 0.01 0.01 49 1011.5
20260507183747 60 229 5.2 7.8 0.00 0.01 0.01 49 1011.6
20260507183244 63 248 2.6 3.5 0.00 0.01 0.01 47 1011.5
20260507182742 61 53 2.6 2.6 0.00 0.01 0.01 52 1011.9
20260507182241 60 302 0.9 2.6 0.00 0.01 0.01 47 1011.6
20260507181739 62 266 0.0 1.7 0.00 0.01 0.01 43 1011.5
20260507181235 62 271 8.7 11.3 0.00 0.01 0.01 42 1011.5
20260507180732 62 259 0.9 7.0 0.00 0.01 0.01 48 1011.6
20260507180229 62 257 2.6 6.1 0.00 0.01 0.01 50 1011.7
20260507175724 62 256 5.2 6.1 0.00 0.01 0.01 42 1011.5
20260507175221 61 120 0.9 6.1 0.00 0.01 0.01 46 1011.7
20260507174719 60 253 0.9 5.2 0.00 0.01 0.01 45 1012.0
20260507174217 61 88 1.7 3.5 0.00 0.01 0.01 45 1011.9
20260507173714 60 107 0.9 7.8 0.00 0.01 0.01 43 1012.0
20260507173210 62 224 4.3 5.2 0.00 0.01 0.01 49 1012.2
20260507172707 60 131 0.0 2.6 0.00 0.01 0.01 44 1012.2
20260507172204 59 217 0.0 3.5 0.00 0.01 0.01 49 1012.3
20260507171704 60 272 1.7 3.5 0.00 0.01 0.01 51 1012.5
20260507171202 61 252 2.6 5.2 0.00 0.01 0.01 49 1012.3
20260507170659 59 216 0.0 3.5 0.00 0.01 0.01 53 1012.7
20260507170156 60 261 0.9 7.0 0.00 0.01 0.01 48 1012.6
20260507165651 60 260 3.5 7.0 0.00 0.01 0.01 47 1012.7
20260507165148 60 106 0.9 3.5 0.00 0.01 0.01 46 1012.8
20260507164643 59 125 3.5 7.8 0.00 0.01 0.01 52 1012.7
20260507164141 61 314 4.3 6.1 0.00 0.01 0.01 50 1012.7
20260507163638 59 46 1.7 2.6 0.00 0.01 0.01 48 1012.9
20260507163136 60 2 0.0 0.9 0.00 0.01 0.01 46 1012.8
20260507162632 59 319 0.9 1.7 0.00 0.01 0.01 47 1013.0
20260507162128 58 237 0.9 2.6 0.00 0.01 0.01 53 1013.0
20260507161624 58 218 1.7 7.0 0.00 0.01 0.01 49 1013.1
20260507161121 59 226 3.5 6.1 0.00 0.01 0.01 49 1013.1
20260507160617 59 93 0.0 2.6 0.00 0.01 0.01 51 1013.2
20260507160114 58 251 2.6 3.5 0.00 0.01 0.01 52 1013.4
20260507155609 58 228 1.7 7.0 0.00 0.01 0.01 55 1013.5
20260507155106 58 84 0.9 3.5 0.00 0.01 0.01 52 1013.1
20260507154603 56 201 0.9 1.7 0.00 0.01 0.01 55 1013.2
20260507154100 58 196 1.7 6.1 0.00 0.01 0.01 55 1013.6
20260507153557 58 87 0.0 0.9 0.00 0.01 0.01 52 1013.2
20260507153054 57 211 3.5 5.2 0.00 0.01 0.01 58 1013.2
20260507152550 56 205 1.7 2.6 0.00 0.01 0.01 55 1013.3
20260507152046 57 206 2.6 2.6 0.00 0.01 0.01 53 1013.5
20260507151542 55 197 0.0 1.7 0.00 0.01 0.01 58 1013.4
20260507151039 54 191 0.9 5.2 0.00 0.01 0.01 58 1013.5
20260507150536 55 207 2.6 3.5 0.00 0.01 0.01 59 1013.5
20260507150033 56 107 0.9 2.6 0.00 0.01 0.01 54 1013.6
20260507145527 55 202 1.7 1.7 0.00 0.01 0.01 61 1013.5
20260507145026 54 202 1.7 3.5 0.00 0.01 0.01 64 1013.6
20260507144522 56 204 1.7 2.6 0.00 0.01 0.01 59 1014.0
20260507144020 58 171 1.7 2.6 0.00 0.01 0.01 55 1013.6
20260507143517 56 207 1.7 2.6 0.00 0.01 0.01 59 1013.7
20260507143014 55 92 0.0 2.6 0.00 0.01 0.01 62 1014.0
20260507142509 56 84 0.9 1.7 0.00 0.01 0.01 61 1014.1
20260507142007 55 204 0.9 2.6 0.00 0.01 0.01 57 1014.2
20260507141502 55 196 0.9 0.9 0.00 0.01 0.01 64 1014.2
20260507140959 54 97 0.9 2.6 0.00 0.01 0.01 64 1014.2
20260507140456 55 190 1.7 2.6 0.00 0.01 0.01 68 1014.1
20260507135953 56 187 0.9 1.7 0.00 0.01 0.01 69 1014.5
20260507135450 56 150 0.0 0.9 0.00 0.01 0.01 64 1014.3
20260507134948 55 192 2.6 3.5 0.00 0.01 0.01 75 1014.5
20260507134444 55 137 0.0 0.9 0.00 0.01 0.01 71 1014.7
20260507133940 54 182 0.9 2.6 0.00 0.01 0.01 76 1014.6
20260507133436 54 192 2.6 2.6 0.00 0.01 0.01 80 1014.6
20260507132930 53 193 1.7 2.6 0.00 0.01 0.01 83 1014.6
20260507132425 54 128 0.0 0.0 0.00 0.01 0.01 84 1014.8
20260507131921 51 131 0.0 0.0 0.00 0.01 0.01 87 1014.5
20260507131419 50 181 0.0 0.9 0.00 0.01 0.01 88 1014.7
20260507130916 51 188 1.7 2.6 0.00 0.01 0.01 87 1014.7
20260507130413 51 176 0.9 1.7 0.00 0.01 0.01 89 1014.8
20260507125912 50 163 0.0 0.0 0.00 0.01 0.01 88 1014.6
20260507125409 50 163 0.0 0.0 0.00 0.01 0.01 88 1014.7
20260507124906 50 163 0.0 0.0 0.00 0.01 0.01 89 1014.8
20260507124402 49 163 0.0 0.0 0.00 0.01 0.01 89 1014.7
20260507123901 49 163 0.0 0.0 0.00 0.01 0.01 89 1014.8
20260507123357 49 163 0.0 0.0 0.00 0.01 0.01 91 1014.9
20260507122854 49 145 0.0 0.0 0.00 0.01 0.01 93 1015.0
20260507122349 48 145 0.0 0.0 0.00 0.01 0.01 94 1014.9
20260507121846 49 126 0.0 0.0 0.00 0.01 0.01 96 1015.2
20260507121341 49 126 0.0 0.0 0.00 0.01 0.01 96 1014.9
20260507120838 48 125 0.0 0.0 0.00 0.01 0.01 97 1014.7
20260507120335 48 125 0.0 0.0 0.00 0.01 0.01 97 1014.7
20260507115831 48 125 0.0 0.0 0.00 0.01 0.01 97 1014.7
20260507115326 48 125 0.0 0.0 0.00 0.01 0.01 97 1014.6
20260507114822 48 126 0.0 0.0 0.00 0.01 0.01 97 1014.6
20260507114320 48 126 0.0 0.0 0.00 0.01 0.01 97 1014.4
20260507113817 48 125 0.0 0.0 0.00 0.01 0.01 97 1014.4
20260507113314 48 125 0.0 0.0 0.00 0.01 0.01 98 1014.4
20260507112812 47 125 0.0 0.0 0.00 0.01 0.01 98 1014.3
20260507112308 47 166 0.0 0.0 0.00 0.01 0.01 98 1014.3
20260507111807 47 173 0.0 0.0 0.00 0.01 0.01 98 1014.3
20260507111303 47 173 0.0 0.0 0.00 0.01 0.01 98 1014.2
20260507110759 47 173 0.0 0.0 0.00 0.01 0.01 98 1014.2
20260507110255 47 173 0.0 0.0 0.00 0.01 0.01 98 1014.2
20260507105752 47 173 0.0 0.0 0.00 0.01 0.01 98 1014.3
20260507105248 47 173 0.0 0.0 0.00 0.01 0.01 98 1013.9
20260507104746 47 173 0.0 0.0 0.00 0.01 0.01 98 1014.0
20260507104242 47 173 0.0 0.0 0.00 0.01 0.01 98 1013.9
20260507103738 47 173 0.0 0.0 0.00 0.01 0.01 98 1014.0
20260507103234 47 173 0.0 0.0 0.00 0.01 0.01 97 1013.7
20260507102730 47 173 0.0 0.0 0.00 0.01 0.01 97 1013.7
20260507102227 47 173 0.0 0.0 0.00 0.01 0.01 97 1013.9
20260507101723 47 173 0.0 0.0 0.00 0.01 0.01 97 1014.0
20260507101219 47 173 0.0 0.0 0.00 0.01 0.01 97 1013.8
20260507100716 47 173 0.0 0.0 0.00 0.01 0.01 97 1013.7
20260507100215 47 173 0.0 0.0 0.00 0.01 0.01 97 1013.7
20260507095712 47 173 0.0 0.0 0.00 0.01 0.01 97 1013.9
20260507095209 47 173 0.0 0.0 0.00 0.01 0.01 97 1013.7
20260507094706 48 173 0.0 0.0 0.00 0.01 0.01 97 1013.7
20260507094203 47 173 0.0 0.0 0.00 0.01 0.01 97 1013.5
20260507093700 48 173 0.0 0.0 0.00 0.01 0.01 97 1013.6
20260507093158 48 173 0.0 0.0 0.00 0.01 0.01 97 1013.7
20260507092655 48 173 0.0 0.0 0.00 0.01 0.01 97 1013.5
20260507092151 48 173 0.0 0.0 0.00 0.01 0.01 97 1013.4
20260507091647 48 173 0.0 0.0 0.00 0.01 0.01 97 1013.4
20260507091143 48 173 0.0 0.0 0.00 0.01 0.01 98 1013.4
20260507090639 48 173 0.0 0.0 0.00 0.01 0.01 98 1013.5
20260507090137 48 173 0.0 0.0 0.00 0.01 0.01 98 1013.6
20260507085633 48 173 0.0 0.0 0.00 0.01 0.01 98 1013.6
20260507085130 49 134 0.0 0.0 0.00 0.01 0.01 98 1013.4
20260507084627 49 124 0.0 0.0 0.00 0.01 0.01 98 1013.4
20260507084124 49 124 0.0 0.0 0.00 0.01 0.01 98 1013.4
20260507083620 49 124 0.0 0.0 0.00 0.01 0.01 98 1013.5
20260507083117 49 124 0.0 0.0 0.00 0.01 0.01 98 1013.4
20260507082613 50 124 0.0 0.0 0.00 0.01 0.01 98 1013.6
20260507082110 50 124 0.0 0.0 0.00 0.01 0.01 98 1013.5
20260507081606 50 124 0.0 0.0 0.00 0.01 0.01 98 1013.5
20260507081103 50 124 0.0 0.0 0.00 0.01 0.01 98 1013.4
20260507080559 50 124 0.0 0.0 0.00 0.01 0.01 98 1013.5
20260507080056 50 124 0.0 0.0 0.00 0.01 0.01 98 1013.6
20260507075550 50 125 0.0 0.0 0.00 0.01 0.01 98 1013.5
20260507075047 50 125 0.0 0.0 0.00 0.01 0.01 98 1013.5
20260507074544 50 104 0.0 0.0 0.00 0.01 0.01 98 1013.6
20260507074043 50 104 0.0 0.0 0.00 0.01 0.01 98 1013.3
20260507073538 50 104 0.0 0.0 0.00 0.01 0.01 98 1013.4
20260507073035 50 104 0.0 0.0 0.00 0.01 0.01 98 1013.6
20260507072533 50 103 0.0 0.0 0.00 0.01 0.01 98 1013.3
20260507072030 50 103 0.0 0.0 0.00 0.01 0.01 98 1013.3
20260507071527 50 103 0.0 0.0 0.00 0.01 0.01 98 1013.5
20260507071024 50 103 0.0 0.0 0.00 0.01 0.01 98 1013.3
20260507070521 50 103 0.0 0.0 0.00 0.01 0.01 98 1013.5
20260507070018 50 103 0.0 0.0 0.00 0.01 0.01 98 1013.5
20260507065514 50 103 0.0 0.0 0.00 0.01 0.01 98 1013.3
20260507065011 50 103 0.0 0.0 0.00 0.01 0.01 98 1013.3
20260507064509 50 103 0.0 0.0 0.00 0.01 0.01 98 1013.2
20260507064007 50 103 0.0 0.0 0.00 0.01 0.01 98 1013.2
20260507063504 50 102 0.0 0.0 0.00 0.01 0.01 98 1013.3
20260507063001 50 102 0.0 0.0 0.00 0.01 0.01 98 1013.4
20260507062458 51 102 0.0 0.0 0.00 0.01 0.01 98 1013.3
20260507061955 51 101 0.0 0.0 0.00 0.01 0.01 98 1013.5
20260507061453 51 227 0.0 0.0 0.00 0.01 0.01 98 1013.4
20260507060951 51 229 0.0 0.0 0.00 0.01 0.01 98 1013.4
20260507060448 51 248 0.0 0.0 0.00 0.01 0.01 98 1013.5
20260507055944 50 245 0.0 0.0 0.00 0.01 0.01 98 1013.5
20260507055440 51 245 0.0 0.0 0.00 0.01 0.01 98 1013.6
20260507054937 50 245 0.0 0.0 0.00 0.01 0.01 98 1013.4
20260507054433 51 245 0.0 0.0 0.00 0.01 0.01 98 1013.7
20260507053930 51 245 0.0 0.0 0.00 0.01 0.01 98 1013.6
20260507053428 51 245 0.0 0.0 0.00 0.01 0.01 98 1013.8
20260507052926 51 245 0.0 0.0 0.00 0.01 0.01 98 1013.9
20260507052423 51 245 0.0 0.0 0.00 0.01 0.01 98 1013.9
20260507051920 51 245 0.0 0.0 0.07 0.01 0.01 98 1013.8
20260507051418 51 245 0.0 0.0 0.07 0.01 0.01 98 1013.8
20260507050915 51 245 0.0 0.0 0.00 0.00 0.00 98 1014.0
20260507050411 51 245 0.0 0.0 0.00 0.00 0.00 98 1013.9
20260507045908 51 245 0.0 0.0 0.00 0.00 0.00 98 1014.1
20260507045404 51 245 0.0 0.0 0.00 0.00 0.00 98 1013.9
20260507044857 51 245 0.0 0.0 0.00 0.00 0.00 98 1013.8
20260507044353 51 245 0.0 0.0 0.00 0.00 0.00 98 1013.9
20260507043849 51 244 0.0 0.0 0.00 0.00 0.00 98 1014.1
20260507043345 51 249 0.0 0.0 0.00 0.00 0.00 98 1013.8
20260507042841 51 249 0.0 0.0 0.00 0.00 0.00 98 1013.7
20260507042337 51 249 0.0 0.0 0.00 0.00 0.00 98 1013.7
20260507041829 51 249 0.0 0.0 0.00 0.00 0.00 98 1013.8
20260507041326 51 249 0.0 0.0 0.00 0.00 0.00 98 1013.9
20260507040823 51 249 0.0 0.0 0.00 0.00 0.00 98 1013.7
20260507040319 51 249 0.0 0.0 0.00 0.54 0.54 98 1013.6
20260507035815 51 250 0.0 0.0 0.00 0.54 0.54 98 1013.7
20260507035310 51 251 0.0 0.0 0.00 0.54 0.54 98 1013.6
20260507034809 51 250 0.0 0.0 0.00 0.54 0.54 98 1013.6
20260507034305 51 250 0.0 0.0 0.00 0.54 0.54 98 1013.6
20260507033803 51 251 0.0 0.0 0.00 0.54 0.54 98 1013.6
20260507033301 51 251 0.0 0.0 0.00 0.54 0.54 98 1013.8
20260507032757 51 251 0.0 0.0 0.00 0.54 0.54 98 1013.7
20260507032253 51 251 0.0 0.0 0.00 0.54 0.54 98 1013.7
20260507031750 51 251 0.0 0.0 0.00 0.54 0.54 97 1013.8
20260507031247 51 251 0.0 0.0 0.00 0.54 0.54 97 1014.1
20260507030744 51 251 0.0 0.0 0.00 0.54 0.54 97 1014.2
20260507030241 51 251 0.0 0.0 0.00 0.54 0.54 97 1014.6
20260507025738 51 251 0.0 0.0 0.00 0.54 0.54 97 1014.3
20260507025235 51 251 0.0 0.0 0.00 0.54 0.54 97 1013.9
20260507024734 51 255 0.0 0.0 0.00 0.54 0.54 97 1013.9
20260507024231 51 310 0.0 0.0 0.07 0.54 0.54 97 1013.8
20260507023726 51 310 0.0 0.0 0.07 0.54 0.54 97 1013.6